Warning: Javascript must be enabled to use all the features on this page!


Page Loading - Please Wait...

Click to hideNews Bulletins
  • Have your voice heard. Have a few minutes? We're surveying users about their experience with Water Data for the Nation (WDFN). Please take a few minutes to complete our online survey.
  • See the Water Data for the Nation Blog for the latest news and updates.

Peak Streamflow for the Nation

USGS 07091500 ARKANSAS RIVER AT SALIDA, CO.

Chaffee County, Colorado
Hydrologic Unit Code 11020001
Latitude  38°32'45", Longitude 106°00'36" NAD27
Drainage area 1,218  square miles
Gage datum 7,050.45 feet above NGVD29
Output formats
Table
Graph
Tab-separated file
peakfq (watstore) format
Reselect output format
Water
Year
Date Gage
Height
(feet)
Stream-
flow
(cfs)
1895 1895-06-15 3.50 2,3702,6,7
1897 1897-05-31 4.33 3,0602,6,7
1899 1899-06-19 5.90 4,7002,6
1900 1900-05-31 5.00 3,6302,6
1901 1901-05-21 3.80 4,9002,6
1902 1902-05-12 2.206 1,8002,6
1903 1903-06-18 4.90 2,6402,6
1910 1910-06-06 4.206 2,7706
1911 1911-07-05 5.15 3,4006
1912 1912-06-07 5.30 3,5806
1913 1913-06-01 3.70 1,9306
1914 1914-06-15 5.60 4,0106
1915 1915-06-23 4.53 2,7506
1916 1916-06-14 4.75 3,0806
1917 1917-06-18 6.10 4,7306
1918 1918-06-13 6.20 4,8406
1919 1919-05-29 3.90 2,4606
1920 1920-06-09 4.70 3,4306
1921 1921-06-12 5.13 4,0006
1922 1922-06-14 5.426 2,8706
1923 1923-07-18 7.10 4,9006
1924 1924-06-16 7.20 5,1006
1925 1925-06-22 4.40 1,9206
1926 1926-07-04 5.60 3,0606
1927 1927-06-29 6.51 3,7806
1928 1928-05-31 5.88 3,0706
1929 1929-08-27 7.00 3,8506
1930 1930-08-13 6.52 3,4706
1931 1931-07-17 5.68 3,3006
1932 1932-08-16 5.37 2,5006
1933 1933-06-12 5.88 2,9906
1934 1934-05-11 4.10 1,6006
1935 1935-07-12 7.15 4,0506
1936 1936-06-22 6.90 3,9006
1937 1937-06-26 3.566 2,4006
1938 1938-07-14 4.62 3,9306
1939 1939-08-01 3.60 2,5006
1940 1940-06-03 2.73 1,5106
1941 1941-06-21 4.33 3,5306
1942 1942-06-19 4.60 3,6006
1943 1943-07-01 4.11 2,9206
1944 1944-06-22 4.15 2,9806
1945 1945-07-25 3.88 2,5806
1946 1946-06-17 4.41 3,1606
1947 1947-06-21 5.45 4,8906
1948 1948-06-04 4.91 4,1106
1949 1949-06-19 4.98 4,3906
1950 1950-06-18 4.09 2,9106
1951 1951-07-05 4.02 2,8006
1952 1952-06-08 5.44 4,7606
1953 1953-06-13   4,4002,6
1954 1954-05-22 3.56 1,9506
1955 1955-06-25 3.57 1,9806
1956 1956-06-03 4.78 3,7406
1957 1957-06-29 6.82 9,2206
1958 1958-06-06 3.77 5,3006
1959 1959-06-16 3.65 2,8706
1960 1960-06-06 3.84 3,1806
1961 1961-08-11 3.80 3,1206
1962 1962-07-01 4.07 3,5406
1963 1963-05-20 2.85 1,9506
1964 1964-08-07 4.47 4,1806
1965 1965-07-13 4.95 5,4106
1966 1966-05-08 2.68 2,6906
1967 1967-05-26 3.53 2,7806
1968 1968-06-06 3.76 2,9406
1969 1969-07-28 4.47 4,5706
1970 1970-06-24 4.27 3,9306
1971 1971-06-24 3.59 3,1806
1972 1972-08-31 4.24 3,8806
1973 1973-06-29 3.84 4,0506
1974 1974-05-29 2.89 2,5706
1975 1975-07-06 3.79 3,6806
1976 1976-06-10 3.10 2,5306
1977 1977-06-10 2.17 1,4006
1978 1978-06-16 4.20 3,8106
1979 1979-06-08 4.13 3,7006
1980 1980-06-12   5,5001,2,6
?
  Peak Gage-Height Qualification Codes.
?
  Peak Streamflow Qualification Codes.